Location: Decatur Area Astronomy Club
(40.0275°N, 88.7810°W)
Time: 04:21:24
(UTC-05:00)

Daily predictions for brighter satellites

Satellite Brightness Start Highest point End
(mag) Time Altitude Azimuth Time Altitude Azimuth Time Altitude Azimuth
SL-16 R/B 4.3 02:33:25 27° NNE 02:33:25 27° NNE 02:36:39 10° N
Cosmos 2322 Rocket 4.2 02:58:56 24° NE 02:58:56 24° NE 03:01:10 10° NNE
SL-16 R/B 4.0 03:04:10 27° NE 03:04:10 27° NE 03:06:39 10° NNE
Resurs 1-4 Rocket 4.1 03:06:02 10° NNE 03:08:11 24° NNE 03:08:11 24° NNE
CZ-2D R/B 3.9 03:08:10 10° NNE 03:10:47 28° NNE 03:10:47 28° NNE
FALCON 9 R/B 4.2 03:17:39 67° SSW 03:18:19 68° S 03:53:55 10° ESE
Cosmos 2360 Rocket 3.6 03:27:51 34° ENE 03:27:51 34° ENE 03:31:40 10° NE
Cosmos 1980 Rocket 4.2 03:30:15 19° NNW 03:30:15 19° NNW 03:32:18 10° N
ADEOS Rocket 3.7 03:33:34 10° NNE 03:37:11 42° NNE 03:37:11 42° NNE
CENTAUR R/B 3.6 03:43:40 36° NNW 03:43:40 36° NNW 03:48:57 10° NNE
Cosmos 2263 Rocket 4.5 03:37:24 10° NNW 03:38:03 13° NNW 03:38:03 13° NNW
USA 215 4.3 03:44:04 10° E 03:50:10 43° NNE 03:56:15 10° NW
Cosmos 2322 3.9 04:04:46 70° ENE 04:04:46 70° ENE 04:10:04 10° NNE
Meteor 1-18 Rocket 4.2 04:12:26 76° E 04:12:26 76° E 04:17:59 10° NNE
SL-16 R/B 4.2 04:18:29 19° NW 04:18:29 19° NW 04:20:19 10° NNW
ARIANE 5 R/B 4.1 04:11:55 10° N 04:14:22 25° NNW 04:14:22 25° NNW
Nadezhda 1 Rocket 4.2 04:16:39 42° SSE 04:18:41 66° E 04:24:41 10° NNE
Meteor 1-12 Rocket 4.4 04:13:28 10° N 04:19:07 69° E 04:22:22 26° SSE
Cosmos 1570 Rocket 4.4 04:24:17 53° SE 04:25:07 60° ESE 04:30:16 10° NNE
Okean 1 4.4 04:31:57 39° N 04:31:57 39° N 04:34:35 10° N
Tiangong 2 3.6 04:34:35 20° E 04:34:35 20° E 04:35:43 10° E
MOS 1 Rocket 3.2 04:29:17 10° N 04:33:35 74° N 04:33:35 74° N
Cosmos 2074 Rocket 3.8 04:27:57 10° NNW 04:34:11 71° W 04:35:49 50° SSW
CZ-4B R/B 4.0 04:28:49 10° NNE 04:34:18 50° E 04:38:17 18° S
MOS 1-B 4.2 04:30:24 10° N 04:36:13 73° WNW 04:37:10 61° SW
Cosmos 2322 Rocket 3.8 04:40:45 20° NW 04:40:45 20° NW 04:44:16 10° N
Cosmos 1238 Rocket 4.0 04:42:00 31° ENE 04:42:00 31° ENE 04:44:09 10° NNE
IRS-1C Rocket 4.4 04:38:03 10° NNE 04:43:18 64° ESE 04:46:22 25° S
Cosmos 1975 4.2 04:40:52 10° NNW 04:42:59 29° NNW 04:42:59 29° NNW
SL-16 R/B 3.8 04:46:02 20° NW 04:46:02 20° NW 04:49:42 10° N
Cosmos 2237 4.1 04:48:29 51° SW 04:49:52 71° WNW 04:55:37 10° NNE
Resurs 1-4 Rocket 3.9 04:47:02 10° NNW 04:49:17 17° NW 04:49:17 17° NW
CZ-2C R/B 4.2 04:47:21 10° SSE 04:51:51 60° ENE 04:56:19 10° N
Cosmos 2219 Rocket 2.8 04:48:29 19° S 04:52:20 53° ESE 04:57:45 10° NNE
Okean O Rocket 1.5 04:48:31 10° NNE 04:53:00 86° WNW 04:54:01 54° SSW
CZ-2D R/B 3.9 04:49:25 10° NNW 04:52:07 18° NW 04:52:07 18° NW
PSLV R/B 4.1 04:49:53 10° N 04:52:53 50° NNW 04:52:53 50° NNW
COSMOS 2428 2.6 04:51:56 42° SSW 04:53:58 84° WNW 04:59:42 10° NNE
Cosmos 1844 Rocket 2.8 04:54:46 10° NNW 05:00:23 77° ENE 05:05:56 10° SSE
Lacrosse 4 Rocket 2.9 05:03:25 23° S 05:03:25 23° S 05:05:11 10° S
DELTA 2 R/B (1) 3.5 05:02:43 43° WSW 05:04:36 78° S 05:10:09 10° E
Cosmos 1455 Rocket 4.2 05:01:11 10° NNW 05:03:47 29° NW 05:03:47 29° NW
Okean-O 4.2 05:02:36 10° NNE 05:06:40 35° E 05:10:44 10° SSE
Cosmos 2360 Rocket 3.1 05:09:37 28° WNW 05:10:31 29° WNW 05:15:24 10° N
Cosmos 2184 Rocket 4.5 05:05:01 10° NNW 05:10:39 37° W 05:12:43 29° SW
Cosmos 2285 Rocket 4.5 05:05:31 10° S 05:11:50 63° ESE 05:18:12 10° NNE
ADEOS II 2.0 05:09:44 10° N 05:14:58 68° WNW 05:18:42 19° SSW
Cosmos 2278 Rocket 3.4 05:10:27 10° N 05:15:52 44° ENE 05:21:15 10° SE
Meteor 1-19 Rocket 4.1 05:10:56 11° SSW 05:16:21 82° W 05:22:06 10° N
Cosmos 1340 4.3 05:19:10 20° NW 05:19:10 20° NW 05:21:10 10° NNW
Gblst 52 Del rocket 4.3 05:14:41 16° WNW 05:19:20 70° SW 05:25:44 10° SE
Cosmos 2237 Rocket 2.9 05:14:45 10° S 05:20:14 53° ESE 05:25:47 10° NNE
Aureole 2 Rocket 3.6 05:20:24 10° S 05:23:55 44° ESE 05:27:10 10° NNE
SAR-Lupe-3 4.4 05:21:24 10° S 05:24:58 68° WSW 05:28:34 10° NNW
Meteor 2-19 Rocket 4.4 05:19:19 10° N 05:25:27 90° WSW 05:31:30 10° S
Meteor 2-4 Rocket 3.7 05:21:14 10° S 05:26:50 88° E 05:32:20 10° N
Cosmos 405 Rocket 3.6 05:24:03 10° S 05:28:01 54° E 05:31:57 10° NNE
Cosmos 962 Rocket 4.4 05:22:12 10° NNW 05:28:26 71° W 05:34:44 10° S
ATLAS 5 CENTAUR R/B 3.0 05:23:15 10° NNW 05:29:13 61° NE 05:35:40 10° SE
Cosmos 1666 2.6 05:25:29 10° N 05:29:22 76° W 05:33:14 10° S
Okean 2 4.1 05:27:41 10° S 05:31:46 57° E 05:35:52 10° NNE
USA 215 3.3 05:26:29 10° SSE 05:32:58 62° SW 05:39:28 10° NW
CZ-3A R/B 0.9 05:35:49 27° NE 05:35:49 27° NE 05:36:45 10° NE
Cosmos 1743 3.3 05:33:14 10° NNW 05:36:46 34° W 05:40:15 10° SSW
Cosmos 2333 Rocket 2.2 05:35:59 10° SSW 05:41:40 76° WNW 05:47:26 10° NNE
PSLV R/B 4.3 05:39:07 10° N 05:43:02 34° WNW 05:45:55 16° SW
CZ-4B R/B 4.1 05:41:02 10° NNW 05:43:43 20° WNW 05:44:12 19° W
CZ-4B R/B 4.1 05:39:37 10° N 05:44:09 86° WNW 05:48:37 10° SSW
USA 229 DEB 3.7 05:38:14 13° SW 05:44:19 70° NW 05:51:17 10° NNE
USA 229 3.7 05:38:19 13° SW 05:44:25 70° NW 05:51:23 10° NNE
Cosmos 1867 3.6 05:39:01 10° NNW 05:44:30 84° ENE 05:49:56 10° SSE
Cosmos 2154 Rocket 4.4 05:39:01 10° NNW 05:44:39 38° W 05:50:16 10° SSW
Meteor 1-31 Rocket 2.6 05:42:38 10° N 05:46:27 74° WNW 05:50:14 10° SSW
Feng Yun 1-1 Rocket 4.3 05:43:20 10° NNE 05:49:13 86° WNW 05:54:55 10° SSW
Okean 1-7 Rocket 3.9 05:46:50 10° SSW 05:51:09 46° W 05:55:30 10° N
EO 1 Del DPAF 4.5 05:48:44 11° SW 05:51:30 21° W 05:54:30 10° NW
NOSS 3-1 (A) 4.4 05:51:21 10° S 05:56:48 46° ESE 06:02:48 10° NE
OTV 4 2.8 05:56:50 10° SSW 05:58:34 15° SSE 06:00:18 10° ESE
NOSS 3-1 (C) 3.8 05:53:38 10° SSW 05:59:18 67° ESE 06:05:36 10° NE
Meteor PRIRODA 4.4 05:56:23 10° N 05:59:48 34° WNW 06:03:13 10° SW
Thor Agena Rocket 3.4 05:54:58 10° SSE 06:00:02 80° WSW 06:05:06 10° NNW
Cosmos 1606 Rocket 3.5 05:58:01 10° NNW 06:02:30 72° W 06:06:56 10° S
Cosmos 990 Rocket 3.9 05:57:59 10° NNW 06:03:12 85° WSW 06:08:20 10° SSE
Hubble Space Telescope 3.2 06:01:31 10° SSW 06:03:26 13° SSE 06:05:19 10° SE
Cosmos 2150 Rocket 4.0 05:59:03 10° NNW 06:04:17 63° WSW 06:09:35 10° S
SL-8 Rocket 4.0 05:58:29 10° NNW 06:04:35 60° W 06:10:36 10° S
Cosmos 2181 Rocket 4.4 05:59:44 10° SSW 06:05:33 41° WNW 06:11:29 10° N
Iridium 2 3.9 06:04:46 10° NNW 06:08:28 47° W 06:12:08 10° SSW
Cosmos 468 Rocket 4.5 06:03:38 10° SW 06:08:30 41° WNW 06:13:26 10° N
Cosmos 1844 4.2 06:03:30 10° NW 06:08:45 38° WSW 06:13:55 10° S
Tiangong 2 2.2 06:06:42 12° W 06:09:03 28° SSW 06:11:47 10° SSE
Cosmos 1898 Rocket 3.8 06:05:12 10° NNW 06:10:04 41° WSW 06:14:53 10° S
CZ-4B R/B 4.4 06:10:09 10° NNW 06:14:28 23° WNW 06:18:43 10° WSW
GPS 2-04 Rocket1 3.9 06:11:08 10° SW 06:14:40 32° SSE 06:18:03 10° ESE
SL-16 R/B 2.7 06:11:08 10° S 06:16:43 66° ESE 06:22:22 10° NNE
Cosmos 864 Rocket 4.5 06:11:47 10° NNW 06:17:56 69° W 06:24:07 10° S
ERS-2 3.3 06:15:24 10° NNW 06:18:27 24° WNW 06:21:29 10° SW
Ariane Rocket 4.1 06:15:49 10° NNE 06:20:43 49° E 06:25:36 10° S
VEP-3 4.5 06:15:48 10° WSW 06:24:53 25° S 06:29:35 10° SE
Cosmos 1980 4.2 06:22:06 10° SW 06:27:23 40° WNW 06:32:43 10° N
